Location: *
(58.4167°N, 22.5000°E)
Time: 15:57:00
(UTC+00:00)

Cosmos 1174 - Pass Details

Date: 22 September 2019
Orbit: 371 x 1149 km, 66.1° (Epoch: 15 October)

Event Time Altitude Azimuth Distance (km) Brightness Sun altitude
Rises 19:30:31 0° 309° (NW) 3,167 9.2 -22.3°
Reaches altitude 10° 19:33:09 10° 310° (NW) 2,103 7.9 -22.6°
Enters shadow 19:37:49 82° 36° (NE) 574 3.8 -23.0°
